Regional Weather Roundup
Issued by NWS

Home | Current Version | Previous Version | Graphics & Text | Print | Product List | Glossary On
Versions: 1 2 3 4 5 6 7 8 9 10 11 12 13 14 15 16 17 18 19 20 21 22 23 24 25 26 27 28 29 30 31 32 33 34 35 36 37 38 39 40 41 42 43 44 45 46 47 48 49 50
000
ASUS43 KTOP 181859
RWRKS

WEATHER ROUNDUP FOR KANSAS
NATIONAL WEATHER SERVICE GOODLAND KS
200 PM CDT SAT APR 18 2015

NOTE:  "FAIR" INDICATES FEW OR NO CLOUDS BELOW 12,000 FEET WITH NO
SIGNIFICANT WEATHER AND/OR OBSTRUCTIONS TO VISIBILITY.

KSZ001>006-013>018-027>032-041>047-182000-
NORTHWEST KANSAS

CITY           SKY/WX    TMP DP  RH WIND       PRES   REMARKS
GOODLAND       PTSUNNY   57  47  69 SE8       29.84F
HAYS           MOSUNNY   70  50  49 SE9       29.82F
HILL CITY      PTSUNNY   68  53  58 S7        29.84F
RUSSELL        MOSUNNY   71  55  56 S12G21    29.81F
$$

KSZ061>065-074>080-084>089-182000-
SOUTHWEST KANSAS

CITY           SKY/WX    TMP DP  RH WIND       PRES   REMARKS
DODGE CITY     MOSUNNY   68  43  40 VRB5      29.84F
ELKHART          N/A    N/A N/A N/A MISG        N/A
GARDEN CITY    MOSUNNY   63  38  39 SW9       29.83F
LIBERAL        SUNNY     70  36  28 SW9G18    29.84F
$$

KSZ066>073-081>083-090>101-182000-
SOUTHEAST KANSAS

CITY           SKY/WX    TMP DP  RH WIND       PRES   REMARKS
CHANUTE        CLOUDY    63  58  83 E7        29.91F
COFFEYVILLE    CLOUDY    69  59  70 S10       29.90F
HUTCHINSON     SUNNY     75  56  51 SE18      29.83
MEDICINE LODGE   N/A     72  58  61 S15G23    29.83F
NEWTON         MOSUNNY   64  55  72 SE12      29.88F
PARSONS        CLOUDY    65  60  84 E6        29.91F
WICHITA INTL   PTSUNNY   71  59  65 SE10G20   29.86F
WICHITA JABRA  MOSUNNY   70  60  70 SE10G20   29.87F
WINFIELD       MOSUNNY   73  58  59 SE13      29.88F
$$

KSZ007>012-019>026-033>040-048>060-102>105-182000-
NORTHEAST KANSAS

CITY           SKY/WX    TMP DP  RH WIND       PRES   REMARKS
CONCORDIA      PTSUNNY   70  59  68 SE10      29.85F
EMPORIA        LGT RAIN  61  59  93 S13       29.91S
LAWRENCE       LGT RAIN  62  59  90 SE12      29.91F
MANHATTAN      CLOUDY    69  61  75 S15       29.87S
OLATHE IND     LGT RAIN  60  59  96 S7        29.93F
OLATHE EXE     LGT RAIN  61  59  93 S6        29.92F FOG
SALINA         MOSUNNY   74  60  61 S9        29.84F
TOPEKA BILLARD LGT RAIN  63  60  90 E6        29.90S
TOPEKA FORBES  LGT RAIN  64  59  83 SE10      29.89F
$$


USA.gov is the U.S. government's official web portal to all federal, state and local government web resources and services.